[[{"header":{"parameterUnit":"m.s-1","parameterCategory":2,"la1":30.2991,"la2":30.254,"lo1":-89.0895,"lo2":-89.0444,"dy":0.0017,"dx":0.0017,"nx":28,"ny":28,"refTime":"2024-02-15T09:00:00:Z","depth":"0","parameterNumber":2,"parameterNumberName":"U-component_of_CURRENTS"},"data":[0,0,0,0,0,0,0,0,0,0,0,0,0,0,0,0,0,0,0,0,0,0,0,0,0,0,0,0,0,0,0,0,0,0,0,0,0,0,0,0,0,0,0,0,0,0,0,0,0,0,0,0,0,0,0,0,0,0,0.2432,0.2433,0,0.246,0.2461,0.2461,0.2447,0.2447,0.2446,0.2446,0.2323,0.232,0.2317,0,0,0,0,0,0,0,0,0,0,0,0,0,0.2368,0.2369,0.2432,0.2433,0.2434,0.246,0.2461,0.2461,0.2448,0.2447,0.2446,0.2446,0.2324,0.2321,0.2317,0,0,0,0,0,0,0,0,0,0,0,0,0,0.2394,0.2369,0.2432,0.2432,0.2432,0.246,0.2461,0.2461,0.2448,0.2447,0.2446,0.2445,0.2325,0.2321,0.2317,0.2306,0,0,0.2304,0.2302,0,0,0,0,0,0,0,0,0.2392,0.2396,0.2431,0.2432,0.2432,0.2452,0.2393,0.2402,0.2448,0.2439,0.2446,0.2445,0.2354,0.2347,0.2353,0.2301,0.2295,0.2304,0.2301,0.2299,0.2298,0,0,0,0,0,0,0,0.2391,0.2395,0.2441,0.2432,0.2433,0.2431,0.2433,0.2395,0.2396,0.244,0.244,0.2447,0.2353,0.2358,0.235,0.2293,0.2304,0.23,0.2297,0.2296,0.2253,0.2255,0,0,0,0,0,0,0.2393,0.2393,0.244,0.2442,0.2413,0.2432,0.2435,0.2444,0.24,0.2394,0.2447,0.2446,0.2365,0.2355,0.2345,0.2366,0.2299,0.2295,0.2293,0.2252,0.2254,0.2255,0,0,0,0,0,0,0.2391,0.2397,0.2439,0.242,0.2425,0.2435,0.2445,0.2445,0.2453,0.2407,0.2398,0.2454,0.2364,0.2351,0.2333,0.2359,0.2293,0.229,0.225,0.2252,0.2254,0.2383,0,0,0,0,0,0,0.2389,0.2396,0.2403,0.242,0.2427,0.2462,0.2446,0.2447,0.2459,0.2457,0.241,0.2398,0.2363,0.234,0.2329,0.2352,0.2286,0.2249,0.2251,0.2254,0.2377,0.239,0.24,0,0,0,0,0,0.2387,0.2399,0.2404,0.2409,0.2437,0.2463,0.2466,0.2468,0.246,0.247,0.2449,0.24,0.2348,0.2338,0.2325,0.2347,0.2247,0.225,0.2253,0.2372,0.2387,0.24,0,0,0,0,0,0,0.2372,0.24,0.2405,0.2424,0.2446,0.2462,0.2472,0.2474,0.2469,0.2463,0.2416,0.2404,0.2405,0.2355,0.2344,0.2343,0.229,0.229,0.2384,0.2398,0.2409,0.2409,0.2283,0,0,0,0,0,0.2374,0.2393,0.2418,0.2435,0.2447,0.2461,0.2472,0.2478,0.2477,0.2475,0.2448,0.2418,0.2409,0.2386,0.2366,0.2353,0.2358,0.2359,0.2371,0.2381,0.2373,0.2421,0.2436,0.2265,0.2265,0.2265,0,0,0.2371,0.2392,0.24,0.2433,0.2449,0.2471,0.2465,0.2489,0.2506,0.2459,0.2468,0.246,0.2418,0.2426,0.2418,0.2382,0.2442,0.2385,0.2394,0.238,0.2426,0.2443,0.2458,0.2267,0.2267,0.2267,0,0,0.2377,0.2396,0.2413,0.2435,0.2468,0.2483,0.2492,0.2517,0.2526,0.254,0.2525,0.2537,0.2496,0.2495,0.2481,0.2536,0.2512,0.2523,0.2565,0.2613,0.2628,0.2641,0.2719,0.2738,0.2514,0.2515,0.2515,0,0.2372,0.2401,0.2422,0.2446,0.2466,0.2489,0.2512,0.2531,0.2547,0.2564,0.255,0.256,0.2533,0.2555,0.2583,0.2562,0.2593,0.2521,0.2631,0.2643,0.2654,0.2731,0.2749,0.2521,0.2521,0.252,0.2519,0,0.2389,0.2416,0.2431,0.247,0.2492,0.2521,0.2551,0.2577,0.2594,0.2617,0.2655,0.2647,0.2647,0.2655,0.2632,0.2696,0.2699,0.2658,0.2603,0.268,0.2755,0.2773,0.2531,0.2528,0.2526,0.2525,0,0,0.2367,0.2431,0.2434,0.2463,0.251,0.2532,0.257,0.2619,0.2657,0.2682,0.2729,0.2744,0.2755,0.2741,0.2732,0.2769,0.2901,0.2748,0.2747,0.2837,0.3044,0.3022,0.3039,0.2885,0.2888,0.289,0.3085,0,0.2377,0.2424,0.2453,0.25,0.2531,0.2568,0.2607,0.2653,0.2693,0.2747,0.2769,0.2806,0.2782,0.2798,0.284,0.2885,0.2944,0.2854,0.2942,0.2945,0.2926,0.3056,0.2938,0.3098,0.3101,0.3104,0.3106,0,0.2379,0.2417,0.2459,0.2533,0.2549,0.258,0.2653,0.2694,0.2773,0.2807,0.2854,0.2869,0.2941,0.2899,0.3027,0.2975,0.3019,0.3051,0.3058,0.2993,0.2954,0.3009,0.3129,0.3039,0.3133,0.313,0.3129,0,0.235,0.2421,0.2457,0.2479,0.256,0.2591,0.2638,0.2714,0.2758,0.2849,0.29,0.2967,0.3029,0.3079,0.3147,0.3099,0.3296,0.3231,0.326,0.3261,0.3151,0.3136,0.3193,0.3323,0.3323,0.3322,0.3322,0,0.2348,0.2373,0.2452,0.2472,0.2525,0.2588,0.265,0.271,0.28,0.2868,0.2931,0.3,0.3078,0.3181,0.3208,0.3316,0.3353,0.3303,0.3314,0.3197,0.3184,0.3086,0.3042,0.333,0.3328,0.3327,0.3325,0,0.2295,0.2349,0.2392,0.2482,0.251,0.2545,0.2641,0.2697,0.2798,0.289,0.2921,0.3071,0.3213,0.3293,0.3418,0.3419,0.3404,0.3511,0.3388,0.3379,0.3272,0.3239,0.3186,0.3091,0.3576,0.3577,0.3578,0,0.2266,0.2289,0.2374,0.2405,0.2443,0.2508,0.2562,0.267,0.2735,0.2922,0.2973,0.3148,0.3249,0.3461,0.35,0.3587,0.345,0.352,0.338,0.3285,0.3257,0.3107,0.3017,0.3319,0.3317,0.3316,0.3315,0,0.2219,0.2249,0.2295,0.2362,0.2418,0.2464,0.2554,0.2597,0.2743,0.2843,0.2998,0.3094,0.3312,0.3368,0.3502,0.3516,0.334,0.3494,0.3419,0.309,0.2906,0.2811,0.3199,0.3303,0.3304,0.3305,0.3306,0.3306,0.2182,0.2202,0.228,0.233,0.2381,0.2424,0.2442,0.2549,0.2643,0.2776,0.2933,0.3048,0.3203,0.3369,0.338,0.332,0.3278,0.321,0.3198,0.3071,0.2895,0.3277,0.336,0.3362,0.3363,0.3364,0.3365,0,0.2171,0.2209,0.2251,0.2312,0.2328,0.2375,0.2441,0.2446,0.2523,0.2675,0.2792,0.2926,0.3,0.3084,0.3135,0.3051,0.2877,0.2954,0.2706,0.2647,0.3024,0.2926,0.2888,0.2888,0.2888,0.2888,0.2888,0.2888,0.2183,0.222,0.224,0.2257,0.2279,0.2269,0.2281,0.2297,0.2368,0.245,0.252,0.2636,0.2815,0.2934,0.2884,0.2812,0.2593,0.2482,0.2465,0.2728,0.2748,0.2768,0.2664,0.2571,0.2571,0.1949,0.1944,0.1941]},{"header":{"parameterUnit":"m.s-1","parameterCategory":2,"la1":30.2991,"la2":30.254,"lo1":-89.0895,"lo2":-89.0444,"dy":0.0017,"dx":0.0017,"nx":28,"ny":28,"refTime":"2024-02-15T09:00:00:Z","depth":"0","parameterNumber":3,"parameterNumberName":"V-component_of_CURRENTS"},"data":[0,0,0,0,0,0,0,0,0,0,0,0,0,0,0,0,0,0,0,0,0,0,0,0,0,0,0,0,0,0,0,0,0,0,0,0,0,0,0,0,0,0,0,0,0,0,0,0,0,0,0,0,0,0,0,0,0,0,0.0128,0.0128,0,0.0064,0.0064,0.0063,0.0015,0.0015,0.0015,0.0015,-0.0023,-0.0023,-0.0024,0,0,0,0,0,0,0,0,0,0,0,0,0,0.019,0.019,0.0128,0.0128,0.0127,0.0065,0.0063,0.0062,0.0015,0.0015,0.0015,0.0015,-0.0022,-0.0023,-0.0024,0,0,0,0,0,0,0,0,0,0,0,0,0,0.0147,0.0189,0.0129,0.0098,0.0094,0.0065,0.0063,0.0062,0.0015,0.0015,0.0015,0.0014,-0.0022,-0.0023,-0.0024,-0.0025,0,0,-0.0028,-0.0028,0,0,0,0,0,0,0,0,0.0149,0.0144,0.0103,0.01,0.0096,0.0049,0.0072,0.0035,0.0016,0.0043,0.0015,0.0014,0.0005,0.0002,-0.0013,-0.0026,-0.0028,-0.0028,-0.0029,-0.0029,-0.003,0,0,0,0,0,0,0,0.0153,0.0147,0.0101,0.0102,0.0098,0.008,0.0074,0.0064,0.0026,0.0041,0.0038,0.0034,0.0003,-0.0011,-0.0014,-0.0028,-0.0028,-0.0029,-0.003,-0.003,-0.0047,-0.0046,0,0,0,0,0,0,0.0166,0.015,0.0103,0.0099,0.0125,0.008,0.0072,0.0063,0.0026,0.002,0.0034,0.0032,-0.0009,-0.0012,-0.0015,-0.0006,-0.0029,-0.003,-0.0031,-0.0047,-0.0047,-0.0046,0,0,0,0,0,0,0.0167,0.0162,0.0106,0.0125,0.0117,0.0079,0.0069,0.0062,0.0051,0.0021,0.0015,0.0032,-0.001,-0.0013,-0.0023,-0.0008,-0.0031,-0.0032,-0.0047,-0.0047,-0.0046,0.0006,0,0,0,0,0,0,0.0169,0.0163,0.0163,0.0126,0.0116,0.0099,0.0069,0.0061,0.005,0.0046,0.0017,0.0012,-0.001,-0.0022,-0.0025,-0.001,-0.0033,-0.0048,-0.0047,-0.0047,0.0004,0.0008,0.0012,0,0,0,0,0,0.0171,0.0177,0.0163,0.0158,0.0117,0.0099,0.0093,0.0064,0.0051,0.0052,0.0025,0.0013,-0.0021,-0.0022,-0.0026,-0.0011,-0.0048,-0.0047,-0.0047,0.0002,0.0008,0.0012,0,0,0,0,0,0,0.0208,0.0172,0.0156,0.0151,0.0131,0.0092,0.0092,0.0072,0.005,0.0049,0.0016,0.001,0.0005,-0.001,-0.0011,-0.0016,-0.0035,-0.0036,0.0003,0.0008,0.0011,0.0037,-0.0034,0,0,0,0,0,0.0216,0.0209,0.0175,0.0173,0.0165,0.013,0.012,0.0102,0.0077,0.0067,0.0041,0.0019,0.0004,0.0001,-0.002,-0.0016,-0.0022,-0.0009,-0.0005,-0.0002,0.0016,0.0007,0.0012,-0.0044,-0.0044,-0.0044,0,0,0.023,0.0211,0.0207,0.0181,0.0162,0.0161,0.0123,0.0116,0.0117,0.0069,0.0061,0.003,0.0005,0.0001,-0.0002,-0.0007,0.0011,-0.0001,0.0002,0.0018,0.0008,0.0014,0.0019,-0.0044,-0.0044,-0.0044,0,0,0.0261,0.0238,0.0244,0.0232,0.0212,0.0191,0.0193,0.0157,0.0143,0.0131,0.0095,0.0074,0.005,0.0032,0.0022,0.0039,0.0027,0.0034,0.0082,0.0074,0.0079,0.0083,0.0088,0.0093,0.0042,0.0042,0.0042,0,0.0282,0.028,0.0246,0.0252,0.025,0.021,0.0222,0.0205,0.0169,0.0169,0.0139,0.0099,0.0066,0.0073,0.007,0.005,0.0049,0.0068,0.008,0.0084,0.0088,0.0092,0.0096,0.0045,0.0044,0.0044,0.0044,0,0.0316,0.0316,0.0322,0.0314,0.0309,0.0314,0.0288,0.028,0.0254,0.0236,0.0225,0.0171,0.0152,0.0134,0.0105,0.0119,0.0112,0.0082,0.0073,0.0097,0.01,0.0103,0.0048,0.0047,0.0047,0.0046,0,0,0.0355,0.0347,0.035,0.036,0.0342,0.0345,0.0351,0.0348,0.037,0.032,0.0341,0.0284,0.0253,0.0239,0.0197,0.0186,0.0195,0.0152,0.015,0.0166,0.0193,0.0178,0.018,0.0169,0.017,0.0171,0.0188,0,0.0393,0.0423,0.0403,0.0436,0.0451,0.0422,0.0438,0.0433,0.042,0.043,0.0377,0.0372,0.0296,0.0288,0.0263,0.0219,0.0206,0.0194,0.016,0.016,0.015,0.0184,0.0163,0.0176,0.0191,0.0192,0.0192,0,0.0432,0.0449,0.0485,0.0505,0.0509,0.0525,0.0551,0.056,0.0564,0.0556,0.0537,0.0492,0.0468,0.0392,0.0336,0.0336,0.0271,0.0227,0.0226,0.0199,0.0151,0.0151,0.0181,0.0015,0.0197,0.0197,0.0196,0,0.0483,0.0505,0.0538,0.0543,0.0559,0.0578,0.0591,0.0605,0.0637,0.0641,0.0671,0.0615,0.0614,0.0519,0.0412,0.0378,0.036,0.0297,0.0224,0.0222,0.0192,0.0187,0.0066,0.0253,0.0253,0.0253,0.0253,0,0.0529,0.0558,0.0568,0.0591,0.0646,0.0639,0.0708,0.071,0.0751,0.0823,0.0745,0.0794,0.0647,0.0607,0.0475,0.0382,0.0406,0.0251,0.023,0.021,0.0206,0.0049,-0.0036,0.0254,0.0253,0.0253,0.0253,0,0.0578,0.0579,0.0626,0.0656,0.067,0.0715,0.0783,0.0843,0.0868,0.0962,0.0968,0.0951,0.0903,0.0753,0.0628,0.0492,0.0288,0.0329,0.0324,0.03,0.0053,-0.0027,-0.0132,-0.0197,0.025,0.025,0.0249,0,0.0604,0.0632,0.0679,0.0717,0.0734,0.08,0.0858,0.0895,0.0969,0.1072,0.1131,0.1115,0.1132,0.095,0.0694,0.0479,0.0309,0.0305,0.0216,0.0055,-0.0051,-0.011,-0.0161,0.02,0.02,0.0199,0.0199,0,0.0662,0.0676,0.0717,0.0798,0.0859,0.0934,0.1022,0.1097,0.1171,0.1269,0.1394,0.1419,0.1246,0.1032,0.0724,0.0549,0.0184,0.0288,0.0118,-0.0093,-0.016,-0.0237,0.018,0.0195,0.0195,0.0195,0.0196,0.0196,0.0709,0.0755,0.0814,0.0888,0.0963,0.1071,0.1157,0.1271,0.1413,0.1572,0.1582,0.1658,0.1313,0.0895,0.0644,0.0145,0.0159,-0.0029,-0.0107,-0.0146,-0.0233,0.0186,0.0171,0.0171,0.0172,0.0172,0.0172,0,0.0776,0.083,0.0905,0.1002,0.1096,0.1119,0.1269,0.1374,0.1564,0.1705,0.1813,0.1674,0.1252,0.0802,0.0144,-0.0196,-0.0322,-0.0385,-0.0496,-0.0525,-0.0158,-0.0188,-0.0278,-0.0278,-0.0277,-0.0277,-0.0277,-0.0277,0.0821,0.0907,0.0945,0.1102,0.1172,0.1311,0.1403,0.1564,0.1692,0.187,0.1911,0.1907,0.1537,0.039,-0.0409,-0.0591,-0.0811,-0.0861,-0.0953,-0.0745,-0.0719,-0.0694,-0.0745,-0.095,-0.0951,-0.1297,-0.13,-0.1303]}],[{"header":{"parameterUnit":"m.s-1","parameterCategory":2,"la1":30.2991,"la2":30.254,"lo1":-89.0895,"lo2":-89.0444,"dy":0.0017,"dx":0.0017,"nx":28,"ny":28,"refTime":"2024-02-15T09:00:00:Z","depth":"2","parameterNumber":2,"parameterNumberName":"U-component_of_CURRENTS"},"data":[0,0,0,0,0,0,0,0,0,0,0,0,0,0,0,0,0,0,0,0,0,0,0,0,0,0,0,0,0,0,0,0,0,0,0,0,0,0,0,0,0,0,0,0,0,0,0,0,0,0,0,0,0,0,0,0,0,0,0.1916,0.1916,0,0.1949,0.195,0.195,0.1963,0.1963,0.1963,0.1963,0.1949,0.1949,0.1949,0,0,0,0,0,0,0,0,0,0,0,0,0,0.1865,0.1866,0.1915,0.1916,0.1917,0.1949,0.195,0.195,0.1963,0.1963,0.1963,0.1963,0.195,0.1949,0.1949,0,0,0,0,0,0,0,0,0,0,0,0,0,0.1891,0.1866,0.1915,0.1928,0.193,0.1949,0.195,0.195,0.1963,0.1963,0.1963,0.1963,0.195,0.1949,0.1948,0.1943,0,0,0.1947,0.1946,0,0,0,0,0,0,0,0,0.1889,0.1892,0.1926,0.1927,0.1929,0.1953,0.1927,0.1946,0.1963,0.1949,0.1963,0.1964,0.1947,0.1947,0.1952,0.1942,0.1942,0.1947,0.1946,0.1946,0.1946,0,0,0,0,0,0,0,0.1887,0.1891,0.1927,0.1926,0.1929,0.1934,0.1937,0.1931,0.1945,0.195,0.1952,0.1958,0.1948,0.1952,0.1951,0.1942,0.1947,0.1946,0.1946,0.1945,0.1975,0.1976,0,0,0,0,0,0,0.1886,0.1889,0.1926,0.1929,0.1911,0.1934,0.1938,0.1944,0.1946,0.1948,0.1958,0.1958,0.1953,0.1952,0.1951,0.1992,0.1946,0.1945,0.1945,0.1974,0.1975,0.1977,0,0,0,0,0,0,0.1885,0.1889,0.1925,0.1911,0.1916,0.1935,0.1942,0.1945,0.1957,0.1953,0.1953,0.1967,0.1953,0.1952,0.1959,0.1989,0.1945,0.1944,0.1973,0.1974,0.1976,0.2042,0,0,0,0,0,0,0.1883,0.1888,0.1894,0.1911,0.1917,0.1942,0.1942,0.1946,0.1961,0.1962,0.1961,0.1959,0.1953,0.196,0.1958,0.1987,0.1944,0.1971,0.1973,0.1975,0.2039,0.2046,0.2053,0,0,0,0,0,0.1881,0.1889,0.1894,0.1899,0.1924,0.1943,0.1947,0.1959,0.1961,0.1969,0.1973,0.196,0.1973,0.196,0.1958,0.1988,0.197,0.1973,0.1975,0.2036,0.2045,0.2052,0,0,0,0,0,0,0.1868,0.1892,0.1898,0.1912,0.1929,0.1946,0.1961,0.1963,0.1973,0.1979,0.1968,0.1967,0.199,0.1975,0.1961,0.2003,0.1972,0.1974,0.2019,0.2027,0.2034,0.2036,0.1943,0,0,0,0,0,0.1869,0.1883,0.1903,0.1915,0.1929,0.1945,0.1955,0.1965,0.1975,0.1981,0.1984,0.1989,0.1998,0.2,0.2006,0.2019,0.2025,0.2039,0.2046,0.2051,0.2052,0.2087,0.2097,0.1985,0.1985,0.1985,0,0,0.187,0.1882,0.1892,0.1914,0.1933,0.1953,0.1952,0.1976,0.1993,0.1976,0.2006,0.2013,0.2008,0.2035,0.2043,0.2025,0.2091,0.2055,0.206,0.2057,0.2091,0.2102,0.2111,0.1987,0.1987,0.1986,0,0,0.1879,0.1892,0.191,0.1925,0.1954,0.1964,0.1972,0.1999,0.2017,0.2041,0.2042,0.2065,0.2073,0.2085,0.2087,0.2131,0.2129,0.2136,0.217,0.2204,0.2214,0.2222,0.2265,0.2277,0.2137,0.2137,0.2137,0,0.1878,0.1897,0.1917,0.1937,0.1953,0.197,0.1992,0.2012,0.2038,0.2058,0.206,0.2102,0.21,0.2132,0.2154,0.2148,0.2169,0.2139,0.2214,0.2223,0.223,0.2272,0.2284,0.214,0.214,0.2139,0.2139,0,0.1899,0.1916,0.193,0.196,0.1981,0.2001,0.2034,0.206,0.2084,0.2105,0.2155,0.2166,0.2191,0.22,0.2191,0.2245,0.2246,0.2223,0.2194,0.2246,0.2286,0.2298,0.2145,0.2144,0.2143,0.2142,0,0,0.189,0.1935,0.194,0.1961,0.1993,0.2017,0.2054,0.2094,0.2133,0.2166,0.2219,0.2245,0.2264,0.2268,0.227,0.2297,0.2378,0.2287,0.2287,0.2332,0.2471,0.2424,0.2431,0.2373,0.2375,0.2376,0.2486,0,0.1897,0.1939,0.1955,0.1995,0.2024,0.205,0.2088,0.213,0.2171,0.2229,0.2257,0.2305,0.2286,0.2316,0.2342,0.237,0.2407,0.2351,0.2411,0.2413,0.2367,0.2442,0.2249,0.2326,0.2497,0.2499,0.25,0,0.1903,0.1936,0.1974,0.203,0.2047,0.207,0.2141,0.2176,0.2249,0.2289,0.2338,0.2366,0.2421,0.2397,0.2474,0.2443,0.2465,0.2479,0.2483,0.2419,0.2386,0.2298,0.234,0.2519,0.2517,0.2516,0.2514,0,0.1889,0.1943,0.1974,0.1989,0.2055,0.2084,0.2124,0.2196,0.2243,0.233,0.2386,0.2441,0.2502,0.2524,0.2565,0.2529,0.2652,0.2602,0.2581,0.2579,0.2414,0.2393,0.2658,0.2658,0.2658,0.2657,0.2657,0,0.1875,0.19,0.1975,0.1989,0.2042,0.2097,0.2154,0.2206,0.2295,0.2356,0.2419,0.2483,0.254,0.2612,0.2611,0.2649,0.2695,0.2607,0.2608,0.2433,0.2414,0.2566,0.2554,0.2661,0.266,0.266,0.2659,0,0.1837,0.1878,0.1922,0.2004,0.2027,0.2071,0.2156,0.2208,0.2303,0.2389,0.2423,0.255,0.2635,0.2689,0.2756,0.2725,0.2746,0.2745,0.2546,0.252,0.2636,0.2626,0.2722,0.2722,0.2721,0.2721,0.272,0,0.1814,0.1833,0.1918,0.1945,0.1975,0.2043,0.2085,0.2188,0.2249,0.2412,0.2458,0.2593,0.2649,0.2756,0.2736,0.2749,0.2777,0.2572,0.2449,0.2653,0.2645,0.2636,0.2627,0.2271,0.2267,0.2264,0.2262,0,0.1772,0.1803,0.1844,0.1905,0.1953,0.2005,0.2084,0.2146,0.2273,0.2338,0.2453,0.2513,0.263,0.2563,0.2609,0.2573,0.2546,0.2504,0.2789,0.2278,0.2235,0.2224,0.2229,0.2232,0.2235,0.2237,0.2239,0.224,0.1738,0.1759,0.1814,0.1864,0.1916,0.198,0.1988,0.2078,0.2149,0.223,0.2354,0.236,0.2405,0.2359,0.2303,0.2268,0.2417,0.2293,0.23,0.2312,0.2233,0.219,0.2166,0.2168,0.217,0.2172,0.2174,0,0.1705,0.1734,0.1769,0.1824,0.1836,0.1906,0.1977,0.1955,0.1982,0.2079,0.2111,0.1977,0.196,0.2006,0.1912,0.1916,0.1865,0.1832,0.1746,0.1779,0.1807,0.1698,0.1491,0.1489,0.1486,0.1484,0,0,0.1691,0.1696,0.1711,0.1716,0.1764,0.1756,0.1779,0.1752,0.1772,0.1746,0.1727,0.1859,0.1954,0.169,0.1668,0.1564,0.1648,0.1504,0.206,0.1992,0.2017,0.2093,0.1967,0,0,0,0,0]},{"header":{"parameterUnit":"m.s-1","parameterCategory":2,"la1":30.2991,"la2":30.254,"lo1":-89.0895,"lo2":-89.0444,"dy":0.0017,"dx":0.0017,"nx":28,"ny":28,"refTime":"2024-02-15T09:00:00:Z","depth":"2","parameterNumber":3,"parameterNumberName":"V-component_of_CURRENTS"},"data":[0,0,0,0,0,0,0,0,0,0,0,0,0,0,0,0,0,0,0,0,0,0,0,0,0,0,0,0,0,0,0,0,0,0,0,0,0,0,0,0,0,0,0,0,0,0,0,0,0,0,0,0,0,0,0,0,0,0,-0.0002,-0.0003,0,-0.0048,-0.0049,-0.0049,-0.0081,-0.0081,-0.0081,-0.0082,-0.0102,-0.0102,-0.0103,0,0,0,0,0,0,0,0,0,0,0,0,0,0.0043,0.0043,-0.0002,-0.0003,-0.0003,-0.0048,-0.0049,-0.0049,-0.0081,-0.0081,-0.0082,-0.0082,-0.0102,-0.0102,-0.0103,0,0,0,0,0,0,0,0,0,0,0,0,0,0.0012,0.0042,-0.0002,-0.0023,-0.0026,-0.0048,-0.0049,-0.005,-0.0081,-0.0081,-0.0082,-0.0082,-0.0102,-0.0102,-0.0103,-0.0104,0,0,-0.0105,-0.0105,0,0,0,0,0,0,0,0,0.0014,0.001,-0.002,-0.0022,-0.0025,-0.0058,-0.004,-0.0066,-0.0081,-0.0062,-0.0082,-0.0082,-0.0084,-0.0086,-0.0097,-0.0105,-0.0105,-0.0105,-0.0105,-0.0106,-0.0106,0,0,0,0,0,0,0,0.0016,0.0012,-0.0022,-0.002,-0.0023,-0.0035,-0.004,-0.0045,-0.0072,-0.0063,-0.0065,-0.0068,-0.0085,-0.0096,-0.0097,-0.0106,-0.0105,-0.0106,-0.0106,-0.0106,-0.0115,-0.0115,0,0,0,0,0,0,0.0025,0.0014,-0.0021,-0.0023,-0.0004,-0.0036,-0.0041,-0.0048,-0.0073,-0.0076,-0.0068,-0.0069,-0.0095,-0.0096,-0.0098,-0.0093,-0.0106,-0.0106,-0.0107,-0.0115,-0.0115,-0.0115,0,0,0,0,0,0,0.0026,0.0023,-0.0019,-0.0004,-0.001,-0.0036,-0.0044,-0.0049,-0.0057,-0.0076,-0.0079,-0.007,-0.0095,-0.0097,-0.0103,-0.0094,-0.0107,-0.0107,-0.0116,-0.0115,-0.0115,-0.0086,0,0,0,0,0,0,0.0028,0.0023,0.0023,-0.0004,-0.001,-0.0023,-0.0044,-0.005,-0.0057,-0.006,-0.0078,-0.0081,-0.0095,-0.0102,-0.0104,-0.0095,-0.0108,-0.0116,-0.0116,-0.0115,-0.0087,-0.0085,-0.0083,0,0,0,0,0,0.003,0.0034,0.0024,0.002,-0.001,-0.0022,-0.0027,-0.0047,-0.0057,-0.0055,-0.0074,-0.008,-0.0102,-0.0103,-0.0105,-0.0096,-0.0116,-0.0116,-0.0115,-0.0088,-0.0086,-0.0083,0,0,0,0,0,0,0.0058,0.0031,0.0018,0.0015,0.0001,-0.0027,-0.0026,-0.0042,-0.0056,-0.0057,-0.0079,-0.0083,-0.0087,-0.0095,-0.0095,-0.0098,-0.0109,-0.0109,-0.0088,-0.0085,-0.0083,-0.0063,-0.0108,0,0,0,0,0,0.0064,0.0058,0.0033,0.0032,0.0026,0.0,-0.0007,-0.002,-0.0037,-0.0044,-0.0062,-0.0077,-0.0088,-0.0089,-0.0102,-0.0099,-0.0113,-0.0095,-0.0092,-0.0091,-0.0076,-0.0099,-0.0098,-0.0114,-0.0114,-0.0114,0,0,0.0076,0.0061,0.0057,0.0038,0.0024,0.0024,-0.0004,-0.0009,-0.0008,-0.0042,-0.0048,-0.0071,-0.0087,-0.0091,-0.0092,-0.0094,-0.0094,-0.009,-0.0088,-0.0074,-0.0099,-0.0097,-0.0096,-0.0114,-0.0114,-0.0114,0,0,0.0101,0.0083,0.0087,0.0078,0.0062,0.0047,0.0048,0.0021,0.0011,0.0001,-0.0026,-0.0043,-0.0059,-0.0072,-0.0078,-0.0069,-0.0086,-0.0072,-0.0039,-0.0062,-0.0061,-0.006,-0.008,-0.0081,-0.0066,-0.0066,-0.0066,0,0.0118,0.0116,0.0089,0.0094,0.0093,0.0061,0.0072,0.0058,0.0031,0.0027,0.0006,-0.0028,-0.0048,-0.0047,-0.0049,-0.0062,-0.0078,-0.0048,-0.0059,-0.0058,-0.0057,-0.0078,-0.008,-0.0065,-0.0065,-0.0065,-0.0065,0,0.0144,0.0145,0.015,0.0142,0.0139,0.0144,0.0123,0.0117,0.0095,0.0076,0.0061,0.0022,0.0007,-0.0008,-0.0026,-0.0027,-0.0041,-0.0058,-0.0064,-0.0054,-0.0077,-0.0079,-0.0063,-0.0063,-0.0064,-0.0064,0,0,0.0177,0.0169,0.0172,0.0179,0.0166,0.0168,0.0174,0.0168,0.0179,0.0136,0.0144,0.0102,0.0074,0.0065,0.0035,0.0013,-0.0008,-0.0015,-0.0017,-0.0032,-0.0057,-0.0083,-0.0088,-0.003,-0.003,-0.003,-0.0076,0,0.0207,0.0228,0.0215,0.0241,0.0251,0.023,0.0242,0.0233,0.0217,0.0214,0.0168,0.0159,0.0106,0.0099,0.0067,0.0015,-0.0011,0.0006,-0.0066,-0.0068,-0.009,-0.0091,-0.0066,-0.0106,-0.0078,-0.0079,-0.0079,0,0.0239,0.0249,0.0278,0.0292,0.0296,0.0309,0.0326,0.0332,0.032,0.0306,0.0282,0.0243,0.0209,0.016,0.0075,0.0088,0.0023,-0.0026,-0.0029,-0.0061,-0.0098,-0.0111,-0.0111,-0.0083,-0.0082,-0.0082,-0.0082,0,0.0277,0.0294,0.0321,0.0325,0.0336,0.0352,0.0361,0.0362,0.0383,0.037,0.0384,0.032,0.0307,0.0211,0.0103,0.009,0.0009,-0.0025,-0.0112,-0.0114,-0.0109,-0.0112,-0.0085,-0.0085,-0.0085,-0.0085,-0.0085,0,0.0313,0.0337,0.0344,0.0361,0.0403,0.0397,0.0447,0.0444,0.0464,0.0507,0.0439,0.0457,0.032,0.0254,0.0136,0.0012,0.003,-0.01,-0.0127,-0.01,-0.0101,-0.0091,-0.0091,-0.0087,-0.0087,-0.0086,-0.0086,0,0.0354,0.0353,0.039,0.0412,0.0422,0.0458,0.0508,0.0549,0.0556,0.0614,0.0616,0.0565,0.0475,0.0332,0.0186,0.0069,-0.0059,-0.0108,-0.0067,-0.0088,-0.0177,-0.0175,-0.0213,-0.0215,-0.0216,-0.0217,-0.0217,0,0.0375,0.0396,0.0434,0.0465,0.0479,0.0529,0.0572,0.0592,0.0646,0.0686,0.0724,0.0657,0.0619,0.0389,0.0173,-0.0038,-0.0062,-0.0153,-0.0184,-0.0167,-0.0189,-0.0186,-0.0182,-0.0168,-0.0168,-0.0168,-0.0169,0,0.042,0.0434,0.0466,0.0528,0.0576,0.0637,0.0702,0.0761,0.0805,0.0854,0.0903,0.0872,0.0654,0.0442,0.0148,0.0005,-0.0123,-0.0166,-0.0151,-0.0142,-0.0129,-0.0149,-0.0147,-0.0171,-0.0171,-0.0171,-0.017,-0.017,0.0457,0.0492,0.0535,0.0596,0.0658,0.0747,0.0811,0.0891,0.0983,0.1057,0.1024,0.098,0.0737,0.0353,0.0109,-0.0146,-0.0144,-0.0233,-0.023,-0.0227,-0.0216,-0.0207,-0.0261,-0.0261,-0.0261,-0.0261,-0.0261,0,0.05,0.054,0.0601,0.0677,0.0754,0.078,0.0898,0.0969,0.1087,0.1132,0.1151,0.0925,0.0674,0.0398,0.0019,-0.0215,-0.0226,-0.0283,-0.024,-0.0236,-0.0233,-0.0221,-0.0267,-0.0268,-0.0269,-0.0269,0,0,0.0523,0.0584,0.0614,0.0739,0.0806,0.0918,0.0994,0.1091,0.1149,0.1198,0.1165,0.1077,0.0749,0.0477,0.0165,-0.0048,-0.0087,-0.0091,-0.0061,0.0031,0.0037,-0.0181,-0.0156,0,0,0,0,0]}],[{"header":{"parameterUnit":"m.s-1","parameterCategory":2,"la1":30.2991,"la2":30.254,"lo1":-89.0895,"lo2":-89.0444,"dy":0.0017,"dx":0.0017,"nx":28,"ny":28,"refTime":"2024-02-15T09:00:00:Z","depth":"4","parameterNumber":2,"parameterNumberName":"U-component_of_CURRENTS"},"data":[0,0,0,0,0,0,0,0,0,0,0,0,0,0,0,0,0,0,0,0,0,0,0,0,0,0,0,0,0,0,0,0,0,0,0,0,0,0,0,0,0,0,0,0,0,0,0,0,0,0,0,0,0,0,0,0,0,0,0.1143,0.1144,0,0.1198,0.1198,0.1199,0.1238,0.1238,0.1239,0.124,0.134,0.1342,0.1344,0,0,0,0,0,0,0,0,0,0,0,0,0,0.1058,0.1059,0.1143,0.1144,0.1145,0.1198,0.1198,0.1199,0.1238,0.1238,0.1239,0.124,0.1339,0.1342,0.1344,0,0,0,0,0,0,0,0,0,0,0,0,0,0.1099,0.1059,0.1143,0.1173,0.1176,0.1198,0.1198,0.1199,0.1238,0.1238,0.1239,0.124,0.1338,0.1341,0.1344,0.1346,0,0,0.1354,0.1356,0,0,0,0,0,0,0,0,0.1097,0.1102,0.1168,0.1171,0.1175,0.1215,0.1205,0.1252,0.1237,0.1211,0.124,0.1241,0.1304,0.131,0.1313,0.1351,0.1355,0.1354,0.1356,0.1358,0.1359,0,0,0,0,0,0,0,0.1094,0.1099,0.1162,0.1169,0.1173,0.1179,0.1186,0.1214,0.125,0.1213,0.1217,0.1228,0.1306,0.131,0.1316,0.1357,0.1354,0.1357,0.1359,0.136,0.1478,0.1479,0,0,0,0,0,0,0.1093,0.1097,0.116,0.1164,0.1141,0.118,0.1188,0.1198,0.1249,0.1258,0.1227,0.123,0.1304,0.1312,0.1319,0.1394,0.1358,0.1361,0.1362,0.1477,0.1478,0.1479,0,0,0,0,0,0,0.1091,0.1098,0.1158,0.1134,0.1142,0.1181,0.1193,0.1199,0.1231,0.1259,0.1269,0.1256,0.1305,0.1315,0.1363,0.1395,0.1362,0.1365,0.1475,0.1477,0.1479,0.1498,0,0,0,0,0,0,0.1088,0.1097,0.1114,0.1134,0.1144,0.1185,0.1193,0.12,0.1236,0.124,0.1287,0.1295,0.1306,0.1358,0.1366,0.1399,0.1367,0.1474,0.1476,0.1478,0.1496,0.15,0.1504,0,0,0,0,0,0.1085,0.1099,0.1114,0.1123,0.1163,0.1186,0.1192,0.122,0.1237,0.1251,0.1283,0.1295,0.1379,0.1362,0.1371,0.1405,0.1472,0.1475,0.1478,0.1494,0.15,0.1504,0,0,0,0,0,0,0.1073,0.1105,0.1122,0.1148,0.1174,0.1194,0.1213,0.1234,0.1269,0.1282,0.1307,0.1318,0.1373,0.1385,0.1366,0.1446,0.143,0.1434,0.1439,0.1444,0.1448,0.1443,0.137,0,0,0,0,0,0.1078,0.1099,0.1128,0.1153,0.1165,0.1195,0.1213,0.1233,0.1263,0.128,0.1313,0.135,0.1386,0.1412,0.1441,0.1484,0.1493,0.1514,0.1518,0.1521,0.1524,0.156,0.1567,0.1488,0.1488,0.1488,0,0,0.1083,0.1104,0.1118,0.1153,0.1174,0.1196,0.1208,0.1241,0.1268,0.1286,0.1338,0.1367,0.14,0.1446,0.1473,0.1466,0.1549,0.1524,0.1527,0.1528,0.1563,0.1571,0.1578,0.149,0.149,0.149,0,0,0.1091,0.1119,0.1136,0.1158,0.1197,0.1213,0.1229,0.1264,0.1291,0.1338,0.136,0.1405,0.1462,0.1486,0.1507,0.1553,0.1568,0.1573,0.1594,0.1629,0.1636,0.1642,0.1662,0.1669,0.1577,0.1577,0.1577,0,0.11,0.1121,0.1146,0.1166,0.1186,0.1223,0.1244,0.1275,0.1325,0.135,0.1362,0.1451,0.1478,0.1535,0.1551,0.1563,0.1582,0.1571,0.1634,0.164,0.1646,0.1665,0.1673,0.1578,0.1578,0.1578,0.1578,0,0.1112,0.1138,0.1149,0.1187,0.1212,0.1236,0.1277,0.1312,0.1352,0.1384,0.1455,0.1491,0.1545,0.1564,0.1574,0.1635,0.1635,0.1632,0.1618,0.1654,0.1673,0.1681,0.158,0.158,0.1579,0.1579,0,0,0.1108,0.1149,0.1157,0.1176,0.1224,0.1245,0.1292,0.134,0.1384,0.1438,0.1494,0.1554,0.1585,0.161,0.1635,0.1665,0.1719,0.1671,0.1672,0.1684,0.1796,0.1685,0.1683,0.1733,0.1735,0.1736,0.1791,0,0.1113,0.1143,0.1166,0.1206,0.1223,0.1266,0.1308,0.1363,0.1416,0.148,0.153,0.1598,0.1601,0.1643,0.1673,0.1716,0.1742,0.1704,0.1764,0.1766,0.1657,0.1689,0.1741,0.1797,0.1799,0.18,0.1801,0,0.1114,0.1134,0.1165,0.1214,0.1228,0.1262,0.1334,0.1381,0.1469,0.1515,0.1584,0.1633,0.1704,0.1697,0.1778,0.1759,0.178,0.1799,0.1801,0.1695,0.1669,0.1755,0.1816,0.1815,0.1813,0.1812,0.1812,0,0.1089,0.1134,0.1158,0.1175,0.1237,0.1267,0.131,0.1393,0.1447,0.1549,0.1605,0.1684,0.1749,0.1786,0.1834,0.1819,0.1909,0.1891,0.1805,0.1798,0.1872,0.1865,0.1937,0.1937,0.1936,0.1936,0.1936,0,0.107,0.1097,0.1151,0.1166,0.1209,0.1261,0.1326,0.1383,0.1479,0.1542,0.163,0.1691,0.178,0.1842,0.1857,0.1856,0.1931,0.181,0.1805,0.1879,0.1873,0.1878,0.187,0.1938,0.1938,0.1937,0.1937,0,0.1036,0.1073,0.1104,0.1169,0.1197,0.123,0.1328,0.137,0.1477,0.1562,0.1602,0.1727,0.1799,0.1863,0.1933,0.1884,0.1893,0.1872,0.1952,0.195,0.175,0.1743,0.1771,0.1768,0.1765,0.1762,0.176,0,0.1015,0.1028,0.1099,0.1118,0.1149,0.121,0.1248,0.1356,0.1396,0.1565,0.1587,0.1717,0.178,0.1794,0.186,0.1876,0.1855,0.1842,0.1781,0.1741,0.1734,0.1732,0.1729,0.1756,0.1755,0.1754,0.1753,0,0.0971,0.1006,0.1032,0.1069,0.1106,0.1144,0.1204,0.123,0.1351,0.1473,0.1545,0.1601,0.168,0.1727,0.1759,0.1763,0.1837,0.1811,0.1816,0.1758,0.1722,0.1718,0.1719,0.1743,0.1745,0.1746,0.1746,0,0.0941,0.0945,0.0979,0.1001,0.1048,0.1049,0.1095,0.1141,0.1206,0.1383,0.1406,0.1543,0.1664,0.167,0.1696,0.1696,0.1663,0.1599,0.1615,0.1627,0.1552,0.1484,0.1429,0,0,0,0,0,0.09,0.0889,0.0904,0.0915,0.0956,0.0984,0.105,0.1096,0.1218,0.1233,0.1318,0.1385,0.1453,0.1524,0.1493,0.1614,0.1655,0.157,0.1584,0.1687,0.1699,0.1624,0,0,0,0,0,0,0.0868,0.0883,0.0874,0.0835,0.0836,0.0866,0.0906,0.0985,0.0994,0.1138,0.1181,0.1303,0.1383,0.1465,0.1473,0.1491,0.1469,0.1657,0.1653,0.1681,0.1691,0.1701,0.1628,0,0,0,0,0]},{"header":{"parameterUnit":"m.s-1","parameterCategory":2,"la1":30.2991,"la2":30.254,"lo1":-89.0895,"lo2":-89.0444,"dy":0.0017,"dx":0.0017,"nx":28,"ny":28,"refTime":"2024-02-15T09:00:00:Z","depth":"4","parameterNumber":3,"parameterNumberName":"V-component_of_CURRENTS"},"data":[0,0,0,0,0,0,0,0,0,0,0,0,0,0,0,0,0,0,0,0,0,0,0,0,0,0,0,0,0,0,0,0,0,0,0,0,0,0,0,0,0,0,0,0,0,0,0,0,0,0,0,0,0,0,0,0,0,0,0.0023,0.0022,0,-0.0001,-0.0001,-0.0002,-0.0017,-0.0017,-0.0017,-0.0017,-0.0039,-0.004,-0.004,0,0,0,0,0,0,0,0,0,0,0,0,0,0.0044,0.0044,0.0023,0.0022,0.0022,-0.0001,-0.0001,-0.0002,-0.0017,-0.0017,-0.0017,-0.0017,-0.0039,-0.004,-0.004,0,0,0,0,0,0,0,0,0,0,0,0,0,0.0029,0.0044,0.0023,0.0012,0.0011,-0.0001,-0.0002,-0.0002,-0.0017,-0.0017,-0.0017,-0.0017,-0.0039,-0.004,-0.004,-0.0044,0,0,-0.0043,-0.0043,0,0,0,0,0,0,0,0,0.003,0.0028,0.0014,0.0013,0.0012,-0.0006,-0.0002,-0.0016,-0.0017,-0.0007,-0.0017,-0.0017,-0.0027,-0.0029,-0.0034,-0.0045,-0.0046,-0.0043,-0.0043,-0.0044,-0.0044,0,0,0,0,0,0,0,0.0031,0.0029,0.0012,0.0014,0.0012,0.0005,0.0003,-0.0005,-0.0017,-0.0008,-0.0009,-0.0011,-0.0028,-0.0034,-0.0035,-0.0047,-0.0043,-0.0044,-0.0044,-0.0044,-0.0061,-0.0061,0,0,0,0,0,0,0.0036,0.003,0.0013,0.0012,0.0021,0.0005,0.0002,-0.0001,-0.0017,-0.002,-0.0011,-0.0011,-0.0032,-0.0034,-0.0036,-0.0037,-0.0044,-0.0045,-0.0045,-0.0061,-0.0061,-0.0061,0,0,0,0,0,0,0.0036,0.0034,0.0014,0.0021,0.0018,0.0005,0.0001,-0.0001,-0.0005,-0.0019,-0.0021,-0.0012,-0.0032,-0.0035,-0.0042,-0.0038,-0.0045,-0.0046,-0.0061,-0.0061,-0.0061,-0.0041,0,0,0,0,0,0,0.0037,0.0035,0.0035,0.0021,0.0018,0.0012,0.0001,-0.0002,-0.0006,-0.0007,-0.0021,-0.0023,-0.0033,-0.0041,-0.0043,-0.0039,-0.0046,-0.0061,-0.0061,-0.0061,-0.0042,-0.0041,-0.0039,0,0,0,0,0,0.0038,0.0042,0.0036,0.0034,0.0019,0.0013,0.001,0.0,-0.0006,-0.0005,-0.0017,-0.0023,-0.0041,-0.0041,-0.0044,-0.004,-0.0061,-0.0061,-0.0061,-0.0043,-0.0041,-0.0039,0,0,0,0,0,0,0.0055,0.004,0.0033,0.0033,0.0025,0.001,0.0012,0.0002,-0.0007,-0.0007,-0.0023,-0.0026,-0.0032,-0.0039,-0.0038,-0.0045,-0.0052,-0.0052,-0.0037,-0.0036,-0.0034,-0.0021,-0.0047,0,0,0,0,0,0.0058,0.0056,0.0042,0.0043,0.0039,0.0025,0.0021,0.0015,0.0004,-0.0,-0.0013,-0.0024,-0.0034,-0.0036,-0.0046,-0.0049,-0.0065,-0.0048,-0.0046,-0.0045,-0.0036,-0.0063,-0.0063,-0.006,-0.006,-0.006,0,0,0.0066,0.0057,0.0056,0.0046,0.0039,0.004,0.0023,0.0021,0.0023,-0.0001,-0.0004,-0.0021,-0.0034,-0.0039,-0.0041,-0.0043,-0.0056,-0.0045,-0.0044,-0.0035,-0.0062,-0.0063,-0.0063,-0.006,-0.006,-0.006,0,0,0.0081,0.0072,0.0075,0.0071,0.0063,0.0054,0.0055,0.004,0.0034,0.0027,0.001,-0.0005,-0.0018,-0.0029,-0.0035,-0.0031,-0.005,-0.0034,-0.0013,-0.0039,-0.0039,-0.004,-0.0068,-0.0071,-0.003,-0.003,-0.003,0,0.0091,0.0092,0.0077,0.0081,0.0083,0.0063,0.0072,0.0063,0.0047,0.0043,0.0031,0.0002,-0.0013,-0.0017,-0.0017,-0.0027,-0.0046,-0.0018,-0.0037,-0.0038,-0.0039,-0.0067,-0.0071,-0.0029,-0.003,-0.003,-0.003,0,0.0108,0.0112,0.0116,0.0114,0.0113,0.0118,0.0106,0.0103,0.0089,0.0075,0.0061,0.0033,0.0019,0.0008,-0.0002,-0.0012,-0.0025,-0.0035,-0.0041,-0.0038,-0.0068,-0.0072,-0.0028,-0.0028,-0.0029,-0.0029,0,0,0.0126,0.0127,0.0129,0.0137,0.0132,0.0135,0.014,0.0136,0.0141,0.0112,0.0111,0.0082,0.006,0.0053,0.0031,0.0008,-0.0021,-0.0011,-0.0013,-0.0037,-0.0081,-0.0086,-0.0092,-0.0035,-0.0036,-0.0036,-0.0102,0,0.0145,0.0163,0.0157,0.0178,0.0187,0.0177,0.0185,0.0179,0.0166,0.0158,0.0123,0.0111,0.008,0.0073,0.0044,-0.0002,-0.0029,-0.0002,-0.0081,-0.0083,-0.0087,-0.0096,-0.0037,-0.0106,-0.0107,-0.0107,-0.0108,0,0.0164,0.0174,0.0196,0.0213,0.0217,0.0226,0.0237,0.0242,0.0226,0.0216,0.0193,0.0162,0.0128,0.01,0.002,0.0038,-0.0015,-0.0057,-0.0061,-0.0072,-0.0096,-0.0108,-0.0116,-0.0115,-0.0115,-0.0114,-0.0114,0,0.0185,0.0204,0.0224,0.0229,0.0242,0.0254,0.0261,0.0257,0.027,0.0252,0.0254,0.0202,0.018,0.0107,0.0017,0.0019,-0.0077,-0.0088,-0.0147,-0.0148,-0.0132,-0.013,-0.0146,-0.0146,-0.0146,-0.0146,-0.0146,0,0.0205,0.0225,0.0236,0.0249,0.0281,0.028,0.0312,0.031,0.0316,0.0333,0.0285,0.0281,0.0181,0.0113,0.0029,-0.0073,-0.0073,-0.0142,-0.0164,-0.0123,-0.012,-0.0135,-0.0133,-0.0148,-0.0148,-0.0147,-0.0147,0,0.0225,0.0231,0.0259,0.028,0.0292,0.0314,0.0353,0.0376,0.0374,0.0395,0.0393,0.0338,0.0248,0.0138,0.0015,-0.0054,-0.0153,-0.019,-0.014,-0.0158,-0.021,-0.0206,-0.0257,-0.0258,-0.0258,-0.0259,-0.0259,0,0.0234,0.025,0.0285,0.0311,0.0323,0.036,0.039,0.0405,0.043,0.0429,0.0439,0.0365,0.0312,0.014,0.0015,-0.0152,-0.0176,-0.0228,-0.0216,-0.0204,-0.0221,-0.0216,-0.0211,-0.026,-0.026,-0.026,-0.0261,0,0.0255,0.0267,0.0292,0.0341,0.0378,0.0426,0.0467,0.0489,0.0505,0.0505,0.0486,0.0397,0.0293,0.015,0.0015,-0.0104,-0.0193,-0.0235,-0.0234,-0.0223,-0.0209,-0.0223,-0.0218,-0.0263,-0.0262,-0.0262,-0.0262,0,0.0272,0.0293,0.0325,0.0369,0.0422,0.0473,0.0494,0.0523,0.0545,0.0539,0.0529,0.0419,0.0354,0.0173,0.005,-0.0071,-0.0099,-0.0131,-0.0136,-0.0136,-0.0083,-0.0047,-0.0067,0,0,0,0,0,0.0284,0.031,0.0353,0.0401,0.0455,0.0487,0.0538,0.0554,0.0565,0.0563,0.0551,0.0457,0.0281,0.0201,0.0081,0.0022,-0.0134,-0.0124,-0.0177,-0.0274,-0.0272,-0.0232,0,0,0,0,0,0,0.0292,0.0331,0.0351,0.0419,0.046,0.0521,0.0557,0.0566,0.0566,0.056,0.047,0.0429,0.0254,0.0352,0.0081,0.0042,-0.0008,-0.0207,-0.021,-0.0276,-0.0274,-0.0272,-0.023,0,0,0,0,0]}]]